Location: Bukit Lungun
(2.6833°N, 113.9667°E)
Time: 11:31:58
(UTC+00:00)

Lacrosse 5 rocket - Pass Details

Date: 02 March 2021
Orbit: 462 x 632 km, 57.0° (Epoch: 20 April)

Event Time Altitude Azimuth Distance (km) Brightness Sun altitude
Rises 12:13:57 0° 309° (NW) 2,703 5.5 -24.6°
Reaches altitude 10° 12:16:33 10° 295° (WNW) 1,778 4.7 -25.2°
Maximum altitude 12:19:44 23° 241° (WSW) 1,132 3.5 -26.0°
Enters shadow 12:22:31 12° 191° (S) 1,612 3.9 -26.7°
